Find Starlink 31609

NORAD ID: 59269 Int'l Des: 2024-050 Owner: SPXS Country: US Constellation: starlink operational
LEOCIRCULAR

現在のビュー

3D地球を読み込み中...

About Starlink 31609

Starlink 31609 (NORAD 59269) is a starlink constellation satellite (v2 mini) launched Mar 19, 2024 by SPXS of US. It operates in LEO, CIRCULAR orbit with a mass of 730.00 kg.

次回通過

Passes for default location (London). Set your location on the main map for personalized predictions.

高度履歴

Loading altitude history...

軌道要素

1 59269U 24050R 26237.39754766 .00048608 00000-0 14436-2 0 9995
2 59269 53.1597 115.5820 0001012 73.8705 286.2409 15.34332169136401
Epoch: Aug 25, 2026 • Age: 11 hours

現在のステータス

高度 465.2 km
遠地点 / 近地点 N/A
速度 7.63 km/s
衛星直下点 -8.95°S, 173.93°W
打ち上げ日 Mar 19, 2024
運用期間 2.4 years
タイプ internet

技術仕様

分類 Payload
質量 730.00 kg
乾燥質量 700.00 kg
総質量 730.00 kg
長さ 0.30 m
直径 4.10 m
スパン 29.00 m
形状 Box + pan
製造者 SPXS
バスタイプ Starlink V2M
フェーズステータス In Orbit
所有者/国 SPXS/US

Most Searched